Akron Canton, OH

11:17 PM EST on January 23, 2018 (GMT -0500)
Akron-Canton Regional

Weather History for KCAK - October, 2011

Change the Weather History Date:

Monday, October 31, 2011

  Actual Average Record
Temperature  
Mean Temperature 43 °F 47 °F  
Max Temperature 51 °F 56 °F 79 °F (1950)
Min Temperature 35 °F 38 °F 21 °F (1887)
Degree Days  
Heating Degree Days 22 18  
Month to date heating degree days 380 416  
Since 1 July heating degree days 478 555  
Cooling Degree Days 0 0  
Month to date cooling degree days 1 6  
Year to date cooling degree days 911 652  
Moisture  
Dew Point 35 °F    
Average Humidity 74    
Maximum Humidity 92    
Minimum Humidity 56    
Precipitation  
Precipitation 0.01 in 0.10 in 0.69 in (1993)
Month to date precipitation 5.02 2.83  
Year to date precipitation 48.77 33.48  
Snow  
Snow 0.00 in 0.00 in - ()
Month to date snowfall T 0.4  
Since 1 July snowfall T 0.4  
Since 1 September snowfall T 0.4  
Snow Depth 0.00 in    
Sea Level Pressure  
Sea Level Pressure 30.16 in    
Wind  
Wind Speed 8 mph (South)    
Max Wind Speed 20 mph    
Max Gust Speed 25 mph    
Visibility 7 miles    
Events Rain    
T = Trace of Precipitation, MM = Missing Value Source: NWS Daily Summary

Daily Weather History Graph

Daily Weather History Graph

Search for Another Location

Airport or City:

Trip Planner

Search our weather history database for the weather conditions in past years. The results will help you decide how hot, cold, wet, or windy it might be!

Date:

Astronomy

Oct. 31, 2011 Rise Set
Actual Time 7:54 AM EDT 6:23 PM EDT
Civil Twilight 7:26 AM EDT 6:51 PM EDT
Nautical Twilight 6:54 AM EDT 7:23 PM EDT
Astronomical Twilight 6:22 AM EDT 7:55 PM EDT
Moon 1:02 PM EDT (10/31) 10:56 PM EDT (10/31)
Length of Visible Light 11h 25m
Length of Day
10h 28m
Waxing Crescent, 29% of the Moon is Illuminated
Oct 31
Waxing Crescent
Nov 2
First Quarter
Nov 10
Full
Nov 18
Last Quarter
Nov 25
New

Hourly Weather History & Observations

Time (EDT) Temp. Windchill Dew Point Humidity Pressure Visibility Wind Dir Wind Speed Gust Speed Precip Events Conditions
12:51 AM 39.9 °F 33.4 °F 34.0 °F 79% 30.20 in 8.0 mi SSE 10.4 mph - N/A   Mostly Cloudy
1:51 AM 39.0 °F 34.0 °F 34.0 °F 82% 30.21 in 8.0 mi SSE 6.9 mph - N/A   Mostly Cloudy
2:51 AM 37.9 °F 30.9 °F 33.1 °F 83% 30.19 in 7.0 mi SSE 10.4 mph - N/A   Mostly Cloudy
3:51 AM 37.9 °F 32.7 °F 33.1 °F 83% 30.18 in 6.0 mi SE 6.9 mph - N/A   Haze
4:51 AM 37.9 °F 32.7 °F 33.1 °F 83% 30.17 in 6.0 mi ESE 6.9 mph - N/A   Haze
5:51 AM 37.4 °F 31.4 °F 33.8 °F 87% 30.14 in 6.0 mi SE 8.1 mph - N/A   Haze
6:51 AM 39.0 °F 34.0 °F 33.1 °F 79% 30.17 in 7.0 mi SE 6.9 mph - N/A   Overcast
7:51 AM 39.0 °F 34.0 °F 33.1 °F 79% 30.15 in 7.0 mi SE 6.9 mph - N/A   Overcast
8:51 AM 39.9 °F 36.7 °F 33.1 °F 77% 30.15 in 7.0 mi SSE 4.6 mph - N/A   Overcast
9:51 AM 42.1 °F 37.7 °F 34.0 °F 73% 30.15 in 7.0 mi South 6.9 mph - N/A   Overcast
10:51 AM 45.0 °F 41.8 °F 33.1 °F 63% 30.14 in 10.0 mi SSW 5.8 mph - N/A   Overcast
11:51 AM 48.0 °F - 35.1 °F 61% 30.14 in 10.0 mi South 9.2 mph - N/A   Overcast
12:51 PM 50.0 °F - 35.1 °F 57% 30.12 in 10.0 mi South 13.8 mph - N/A   Overcast
1:51 PM 50.0 °F - 37.0 °F 61% 30.10 in 8.0 mi SSW 12.7 mph - 0.00 in Rain Light Rain
2:51 PM 48.0 °F - 37.0 °F 66% 30.11 in 8.0 mi SW 11.5 mph 21.9 mph 0.00 in Rain Light Rain
3:38 PM 46.4 °F 40.7 °F 39.2 °F 76% 30.10 in 8.0 mi SW 12.7 mph - 0.01 in Rain Light Rain
3:51 PM 46.0 °F 40.2 °F 39.0 °F 76% 30.12 in 7.0 mi WSW 12.7 mph - 0.01 in Rain Light Rain
4:51 PM 45.0 °F 41.2 °F 39.0 °F 80% 30.14 in 6.0 mi South 6.9 mph - 0.00 in   Haze
5:51 PM 45.0 °F 39.7 °F 37.9 °F 76% 30.16 in 6.0 mi SSW 10.4 mph - N/A   Haze
6:51 PM 43.0 °F 38.2 °F 37.0 °F 80% 30.17 in 10.0 mi South 8.1 mph - N/A   Overcast
7:51 PM 41.0 °F 36.4 °F 36.0 °F 82% 30.19 in 9.0 mi South 6.9 mph - N/A   Mostly Cloudy
8:51 PM 41.0 °F 35.2 °F 37.0 °F 86% 30.20 in 8.0 mi South 9.2 mph - N/A   Scattered Clouds
9:51 PM 39.9 °F 37.8 °F 36.0 °F 86% 30.21 in 6.0 mi South 3.5 mph - N/A   Scattered Clouds
10:51 PM 37.0 °F 32.4 °F 35.1 °F 93% 30.22 in 5.0 mi South 5.8 mph - N/A   Clear
11:51 PM 37.9 °F 35.5 °F 35.1 °F 89% 30.22 in 4.0 mi SSE 3.5 mph - N/A   Clear